TimeCST,TemperatureF,Dew PointF,Humidity,Sea Level PressureIn,VisibilityMPH,Wind Direction,Wind SpeedMPH,Gust SpeedMPH,PrecipitationIn,Events,Conditions,WindDirDegrees,DateUTC
12:53 AM,37.0,33.1,86,30.33,10.0,North,3.5,-,0.01,,Clear,360,2013-01-03 06:53:00
1:53 AM,37.0,33.1,86,30.32,10.0,Calm,Calm,-,0.02,,Clear,0,2013-01-03 07:53:00
2:53 AM,36.0,33.1,89,30.34,10.0,Calm,Calm,-,0.01,,Clear,0,2013-01-03 08:53:00
3:53 AM,36.0,33.1,89,30.35,8.0,Calm,Calm,-,0.01,,Clear,0,2013-01-03 09:53:00
4:53 AM,35.1,32.0,89,30.35,6.0,Calm,Calm,-,0.01,,Clear,0,2013-01-03 10:53:00
5:53 AM,33.1,30.9,92,30.36,4.0,Calm,Calm,-,0.01,,Clear,0,2013-01-03 11:53:00
6:29 AM,32.0,30.2,93,30.36,1.5,Calm,Calm,-,N/A,,Clear,0,2013-01-03 12:29:00
6:38 AM,32.0,30.2,93,30.36,0.5,Calm,Calm,-,N/A,Fog,Fog,0,2013-01-03 12:38:00
6:53 AM,32.0,30.0,92,30.38,10.0,Calm,Calm,-,N/A,,Clear,0,2013-01-03 12:53:00
7:21 AM,30.2,28.4,93,30.38,10.0,Calm,Calm,-,N/A,,Scattered Clouds,0,2013-01-03 13:21:00
7:53 AM,30.9,30.0,96,30.39,5.0,Calm,Calm,-,N/A,,Haze,0,2013-01-03 13:53:00
8:39 AM,35.6,33.8,93,30.41,5.0,Calm,Calm,-,N/A,,Haze,0,2013-01-03 14:39:00
8:53 AM,37.0,34.0,89,30.41,5.0,North,3.5,-,N/A,,Clear,360,2013-01-03 14:53:00
8:55 AM,37.4,35.6,93,30.41,2.0,North,3.5,-,N/A,,Haze,10,2013-01-03 14:55:00
9:53 AM,39.0,34.0,82,30.44,6.0,North,5.8,-,N/A,,Haze,350,2013-01-03 15:53:00
10:00 AM,39.2,33.8,81,30.44,9.0,North,6.9,-,N/A,,Haze,360,2013-01-03 16:00:00
10:51 AM,44.6,33.8,66,30.44,10.0,North,8.1,-,0.02,,Haze,350,2013-01-03 16:51:00
10:53 AM,44.1,34.0,68,30.44,10.0,NNW,6.9,-,0.02,,Haze,330,2013-01-03 16:53:00
11:53 AM,45.0,33.1,63,30.41,10.0,NNW,9.2,-,N/A,,Scattered Clouds,330,2013-01-03 17:53:00
12:53 PM,46.9,33.1,59,30.37,10.0,North,10.4,-,N/A,,Clear,350,2013-01-03 18:53:00
1:53 PM,48.0,30.0,50,30.36,10.0,NNW,9.2,-,N/A,,Clear,330,2013-01-03 19:53:00
2:53 PM,48.9,27.0,43,30.36,10.0,NNW,9.2,-,N/A,,Clear,340,2013-01-03 20:53:00
3:53 PM,48.9,30.9,50,30.38,10.0,North,6.9,-,N/A,,Clear,350,2013-01-03 21:53:00
4:53 PM,46.9,30.9,54,30.40,10.0,North,6.9,-,N/A,,Clear,350,2013-01-03 22:53:00
5:53 PM,39.9,32.0,73,30.41,10.0,NNE,4.6,-,N/A,,Clear,30,2013-01-03 23:53:00
6:53 PM,43.0,34.0,71,30.43,10.0,Calm,Calm,-,N/A,,Clear,0,2013-01-04 00:53:00
7:53 PM,43.0,33.1,68,30.44,10.0,ENE,4.6,-,N/A,,Clear,60,2013-01-04 01:53:00
8:53 PM,41.0,32.0,70,30.45,10.0,Calm,Calm,-,N/A,,Clear,0,2013-01-04 02:53:00
9:53 PM,39.9,32.0,73,30.47,10.0,Calm,Calm,-,N/A,,Clear,0,2013-01-04 03:53:00
10:53 PM,37.0,32.0,82,30.46,10.0,North,4.6,-,N/A,,Clear,350,2013-01-04 04:53:00
11:53 PM,39.9,34.0,79,30.45,10.0,Calm,Calm,-,N/A,,Overcast,0,2013-01-04 05:53:00